Regional Weather Roundup
Issued by NWS Goodland, KS

Home | Current Version | Previous Version | Graphics & Text | Print | Product List | Glossary On
Versions: 1 2 3 4 5 6 7 8 9 10 11 12 13 14 15 16 17 18 19 20 21 22 23 24 25 26 27 28 29 30 31 32 33 34 35 36 37 38 39 40 41 42 43 44 45 46 47 48 49 50
000
ASUS43 KGLD 050908
RWRGLD

GOODLAND FORECAST AREA HOURLY WEATHER ROUNDUP
NATIONAL WEATHER SERVICE GOODLAND KS
300 AM MDT SAT SEP 05 2015

...OFFICIAL OBSERVATIONS...

CITY           SKY/WX    TMP DP  RH WIND       PRES   REMARKS
GOODLAND KS    MOCLDY    71  56  58 S13       29.90F
HILL CITY KS   CLEAR     77  60  55 S12G18    29.88F
IMPERIAL NEB   MOCLDY    77  54  44 S12       29.84S
MCCOOK NEB     CLEAR     78  58  49 S15       29.84S
AKRON CO       CLOUDY    66  55  67 S10       29.90S
BURLINGTON CO  MOCLDY    69  49  48 S10       29.94S
LIMON CO       PTCLDY    63  49  60 SW7       29.98F
$$

...UNOFFICIAL OBSERVATIONS...

CITY           SKY/WX    TMP DP  RH WIND       PRES   REMARKS
COLBY KS       CLEAR     75  61  60 S10       29.91S
GOVE KS          N/A     78  32  18 MISG        N/A
LENORA KS        N/A     75  32  20 MISG        N/A
NORTON KS      CLEAR     75  55  50 S9        29.87
SHARON SPRINGS   N/A     72  58  60 S13         N/A
TRENTON NEB      N/A     78  32  18 S7          N/A
KIT CARSON CO    N/A     69  51  53 MISG        N/A
YUMA CO          N/A     75  51  43 S14         N/A
$$


USA.gov is the U.S. government's official web portal to all federal, state and local government web resources and services.